Acapulco, Mexico

4:58 PM CDT on August 23, 2017 (GMT -0500)
Gen Juan N Alvarez International

Weather History for MMAA - November, 2012

Change the Weather History Date:

Friday, November 16, 2012

  Actual Average Record
Temperature  
Mean Temperature 84 °F -  
Max Temperature 92 °F 86 °F 94 °F (2016)
Min Temperature 77 °F 72 °F 35 °F (2001)
Cooling Degree Days 20    
Growing Degree Days 34 (Base 50)    
Moisture  
Dew Point 75 °F    
Average Humidity 76    
Maximum Humidity 93    
Minimum Humidity 50    
Precipitation  
Precipitation 0.00 in - - ()
Sea Level Pressure  
Sea Level Pressure 29.92 in    
Wind  
Wind Speed 2 mph ()    
Max Wind Speed 12 mph    
Max Gust Speed -    
Visibility 7.7 miles    
Events      
Averages and records for this station are not official NWS values.
T = Trace of Precipitation, MM = Missing Value Source: Averaged Metar Reports

Daily Weather History Graph

Daily Weather History Graph

Search for Another Location

Airport or City:

Trip Planner

Search our weather history database for the weather conditions in past years. The results will help you decide how hot, cold, wet, or windy it might be!

Date:

Astronomy

Nov. 16, 2012 Rise Set
Actual Time 6:43 AM CST 6:03 PM CST
Civil Twilight 6:21 AM CST 6:26 PM CST
Nautical Twilight 5:54 AM CST 6:52 PM CST
Astronomical Twilight 5:28 AM CST 7:18 PM CST
Moon 9:33 AM CST (11/16) 9:09 PM CST (11/16)
Length of Visible Light 12h 05m
Length of Day
11h 19m
Waxing Crescent, 12% of the Moon is Illuminated
Nov 16
Waxing Crescent
Nov 20
First Quarter
Nov 28
Full
Dec 6
Last Quarter
Dec 13
New

Hourly Weather History & Observations

Time (CST) Temp. Heat Index Dew Point Humidity Pressure Visibility Wind Dir Wind Speed Gust Speed Precip Events Conditions
12:42 AM 80.6 °F 86.2 °F 75.2 °F 84% 29.92 in 7.0 mi Calm Calm - N/A   Scattered Clouds
1:42 AM 78.8 °F - 75.2 °F 89% 29.92 in 7.0 mi Calm Calm - N/A   Scattered Clouds
2:42 AM 77.0 °F - 73.4 °F 89% 29.92 in 7.0 mi Calm Calm - N/A   Scattered Clouds
2:45 AM 77 °F - 75 °F 93% 29.91 in 6 mi East 2.2 mph - -   Clear
3:42 AM 77.0 °F - 73.4 °F 89% 29.92 in 7.0 mi Calm Calm - N/A   Clear
4:42 AM 77.0 °F - 73.4 °F 89% 29.92 in 7.0 mi Calm Calm - N/A   Clear
5:45 AM 78 °F - 75 °F 88% 29.91 in 6 mi SSE 2.2 mph - -   Clear
5:45 AM 77.0 °F - 71.6 °F 83% 29.91 in 7.0 mi Calm Calm - N/A   Clear
6:45 AM 77.0 °F - 71.6 °F 83% 29.92 in 7.0 mi Calm Calm - N/A   Clear
7:46 AM 78.8 °F - 73.4 °F 83% 29.95 in 6.0 mi Calm Calm - N/A   Clear
8:44 AM 80.6 °F 85.4 °F 73.4 °F 79% 29.97 in 6.0 mi Calm Calm - N/A   Clear
8:50 AM 80 °F - 74 °F 76% 29.96 in 12 mi NE 2.2 mph - -  
9:45 AM 84.2 °F 92.3 °F 75.2 °F 74% 29.95 in 6.0 mi Calm Calm - N/A   Clear
10:44 AM 87.8 °F 97.6 °F 75.2 °F 66% 29.96 in 6.0 mi Calm Calm - N/A   Clear
11:45 AM 89.6 °F 99.8 °F 75.2 °F 62% 29.91 in 7.0 mi SW 6.9 mph - N/A   Clear
11:50 AM 89 °F - 73 °F 50% 29.92 in 12 mi SSW 6.7 mph - -  
12:47 PM 91.4 °F 105.1 °F 77.0 °F 63% 29.91 in 7.0 mi WSW 11.5 mph - N/A   Clear
1:40 PM 89.6 °F 102.2 °F 77.0 °F 66% 29.88 in 8.0 mi WSW 11.5 mph - N/A   Clear
2:42 PM 89.6 °F 102.2 °F 77.0 °F 66% 29.88 in 8.0 mi SSW 11.5 mph - N/A   Clear
2:50 PM 89 °F - 77 °F 60% 29.86 in 12 mi West 6.7 mph - -  
3:46 PM 89.6 °F 102.2 °F 77.0 °F 66% 29.84 in 8.0 mi WSW 11.5 mph - N/A   Clear
4:42 PM 87.8 °F 97.6 °F 75.2 °F 66% 29.85 in 8.0 mi WSW 9.2 mph - N/A   Clear
5:43 PM 86.0 °F 93.4 °F 73.4 °F 66% 29.87 in 8.0 mi WSW 5.8 mph - N/A   Partly Cloudy
5:50 PM 86 °F - 77 °F 69% 29.89 in 12 mi West 6.7 mph - -   Mostly Cloudy
6:44 PM 84.2 °F 94.1 °F 77.0 °F 79% 29.89 in 8.0 mi WSW 4.6 mph - N/A   Scattered Clouds
7:47 PM 84.2 °F 92.3 °F 75.2 °F 74% 29.92 in 8.0 mi Calm Calm - N/A   Partly Cloudy
8:49 PM 84.2 °F 92.3 °F 75.2 °F 74% 29.96 in 8.0 mi Calm Calm - N/A   Partly Cloudy
9:00 PM 83 °F - 78 °F 81%  in 6 mi NW 4.5 mph - -  
9:43 PM 84.2 °F 94.1 °F 77.0 °F 79% 29.95 in 8.0 mi Calm Calm - N/A   Scattered Clouds
10:45 PM 82.4 °F 90.9 °F 77.0 °F 84% 29.96 in 8.0 mi Calm Calm - N/A   Scattered Clouds
11:45 PM 82.4 °F 90.9 °F 77.0 °F 84% 29.90 in 8.0 mi Calm Calm - N/A   Scattered Clouds
11:50 PM 82 °F - 78 °F 86% 29.96 in 6 mi NE 4.5 mph - -   Scattered Clouds